Time,TemperatureF,DewpointF,PressureIn,WindDirection,WindDirectionDegrees,WindSpeedMPH,WindSpeedGustMPH,Humidity,HourlyPrecipIn,Conditions,Clouds,dailyrainin,SoftwareType,DateUTC
2017-02-25 00:02:00,63.6,53.2,29.67,East,98,2.0,2.0,69,0.00,,,0.00,WeatherCatV2.31B93,2017-02-25 05:02:00,
2017-02-25 00:07:00,63.7,53.3,29.67,East,98,2.0,2.0,69,0.00,,,0.00,WeatherCatV2.31B93,2017-02-25 05:07:00,
2017-02-25 00:12:00,63.7,53.3,29.67,East,98,2.0,4.0,69,0.00,,,0.00,WeatherCatV2.31B93,2017-02-25 05:12:00,
2017-02-25 00:17:00,63.7,53.3,29.67,East,98,1.0,4.0,69,0.00,,,0.00,WeatherCatV2.31B93,2017-02-25 05:17:00,
2017-02-25 00:22:00,63.6,53.2,29.67,East,98,2.0,4.0,69,0.00,,,0.00,WeatherCatV2.31B93,2017-02-25 05:22:00,
2017-02-25 00:27:00,63.4,53.4,29.67,East,98,1.0,4.0,70,0.00,,,0.00,WeatherCatV2.31B93,2017-02-25 05:27:00,
2017-02-25 00:32:00,63.2,53.2,29.67,East,98,2.0,2.0,70,0.00,,,0.00,WeatherCatV2.31B93,2017-02-25 05:32:00,
2017-02-25 00:37:00,62.8,53.2,29.67,East,98,0.0,2.0,71,0.00,,,0.00,WeatherCatV2.31B93,2017-02-25 05:37:00,
2017-02-25 00:42:00,62.5,53.0,29.67,East,98,0.0,1.0,71,0.00,,,0.00,WeatherCatV2.31B93,2017-02-25 05:42:00,
2017-02-25 00:47:00,62.4,52.9,29.67,East,98,0.0,0.0,71,0.00,,,0.00,WeatherCatV2.31B93,2017-02-25 05:47:00,
2017-02-25 00:52:00,62.4,53.2,29.67,East,98,0.0,0.0,72,0.00,,,0.00,WeatherCatV2.31B93,2017-02-25 05:52:00,
2017-02-25 00:57:00,62.2,53.1,29.67,East,98,0.0,0.0,72,0.00,,,0.00,WeatherCatV2.31B93,2017-02-25 05:57:00,
2017-02-25 01:02:00,62.1,53.0,29.66,East,98,0.0,0.0,72,0.00,,,0.00,WeatherCatV2.31B93,2017-02-25 06:02:00,
2017-02-25 01:07:00,62.1,53.0,29.66,East,98,0.0,0.0,72,0.00,,,0.00,WeatherCatV2.31B93,2017-02-25 06:07:00,
2017-02-25 01:12:00,62.2,53.1,29.66,East,98,0.0,0.0,72,0.00,,,0.00,WeatherCatV2.31B93,2017-02-25 06:12:00,
2017-02-25 01:17:00,62.0,53.2,29.66,East,98,0.0,0.0,73,0.00,,,0.00,WeatherCatV2.31B93,2017-02-25 06:17:00,
2017-02-25 01:22:00,62.0,53.2,29.66,East,98,0.0,0.0,73,0.00,,,0.00,WeatherCatV2.31B93,2017-02-25 06:22:00,
2017-02-25 01:27:00,62.1,53.3,29.65,East,98,0.0,0.0,73,0.00,,,0.00,WeatherCatV2.31B93,2017-02-25 06:27:00,
2017-02-25 01:32:00,62.0,53.2,29.65,East,98,0.0,0.0,73,0.00,,,0.00,WeatherCatV2.31B93,2017-02-25 06:32:00,
2017-02-25 01:37:00,61.9,53.1,29.65,East,98,0.0,0.0,73,0.00,,,0.00,WeatherCatV2.31B93,2017-02-25 06:37:00,
2017-02-25 01:42:00,61.8,53.0,29.65,East,98,0.0,0.0,73,0.00,,,0.00,WeatherCatV2.31B93,2017-02-25 06:42:00,
2017-02-25 01:47:00,61.7,53.0,29.65,East,98,0.0,0.0,73,0.00,,,0.00,WeatherCatV2.31B93,2017-02-25 06:47:00,
2017-02-25 01:52:00,61.7,53.0,29.65,East,98,0.0,0.0,73,0.00,,,0.00,WeatherCatV2.31B93,2017-02-25 06:52:00,
2017-02-25 01:58:00,61.5,53.1,29.65,East,98,0.0,0.0,74,0.00,,,0.00,WeatherCatV2.31B93,2017-02-25 06:58:00,
2017-02-25 02:03:00,61.4,53.0,29.65,East,98,0.0,1.0,74,0.00,,,0.00,WeatherCatV2.31B93,2017-02-25 07:03:00,
2017-02-25 02:08:00,61.5,53.1,29.65,East,98,0.0,0.0,74,0.00,,,0.00,WeatherCatV2.31B93,2017-02-25 07:08:00,
2017-02-25 02:13:00,61.6,53.2,29.65,East,98,0.0,2.0,74,0.00,,,0.00,WeatherCatV2.31B93,2017-02-25 07:13:00,
2017-02-25 02:18:00,61.7,53.3,29.65,East,98,0.0,0.0,74,0.00,,,0.00,WeatherCatV2.31B93,2017-02-25 07:18:00,
2017-02-25 02:23:00,61.8,53.4,29.65,East,99,0.0,2.0,74,0.00,,,0.00,WeatherCatV2.31B93,2017-02-25 07:23:00,
2017-02-25 02:28:00,61.7,53.3,29.65,East,99,2.0,4.0,74,0.00,,,0.00,WeatherCatV2.31B93,2017-02-25 07:28:00,
2017-02-25 02:33:00,61.7,53.3,29.65,East,101,0.0,4.0,74,0.00,,,0.00,WeatherCatV2.31B93,2017-02-25 07:33:00,
2017-02-25 02:38:00,61.8,53.4,29.65,ESE,103,0.0,2.0,74,0.00,,,0.00,WeatherCatV2.31B93,2017-02-25 07:38:00,
2017-02-25 02:43:00,61.8,53.4,29.65,ESE,105,1.0,4.0,74,0.00,,,0.00,WeatherCatV2.31B93,2017-02-25 07:43:00,
2017-02-25 02:48:00,61.8,53.8,29.65,ESE,110,0.0,4.0,75,0.00,,,0.00,WeatherCatV2.31B93,2017-02-25 07:48:00,
2017-02-25 02:53:00,62.0,53.6,29.65,SW,225,1.0,5.0,74,0.00,,,0.00,WeatherCatV2.31B93,2017-02-25 07:53:00,
2017-02-25 02:58:00,62.2,53.8,29.65,SW,228,3.0,5.0,74,0.00,,,0.00,WeatherCatV2.31B93,2017-02-25 07:58:00,
2017-02-25 03:03:00,62.3,53.9,29.65,SW,227,4.0,4.0,74,0.00,,,0.00,WeatherCatV2.31B93,2017-02-25 08:03:00,
2017-02-25 03:09:00,62.2,53.8,29.65,SSW,198,2.0,4.0,74,0.00,,,0.00,WeatherCatV2.31B93,2017-02-25 08:09:00,
2017-02-25 03:14:00,61.9,53.5,29.65,SSW,198,1.0,2.0,74,0.00,,,0.00,WeatherCatV2.31B93,2017-02-25 08:14:00,
2017-02-25 03:19:00,61.7,53.7,29.65,SSW,198,1.0,2.0,75,0.00,,,0.00,WeatherCatV2.31B93,2017-02-25 08:19:00,
2017-02-25 03:24:00,61.5,53.5,29.65,SSW,198,0.0,0.0,75,0.00,,,0.00,WeatherCatV2.31B93,2017-02-25 08:24:00,
2017-02-25 03:29:00,61.4,53.4,29.64,SSW,198,1.0,2.0,75,0.00,,,0.00,WeatherCatV2.31B93,2017-02-25 08:29:00,
2017-02-25 03:34:00,61.3,53.3,29.64,SSW,197,1.0,1.0,75,0.00,,,0.00,WeatherCatV2.31B93,2017-02-25 08:34:00,
2017-02-25 03:39:00,61.3,53.3,29.64,SSW,197,0.0,0.0,75,0.00,,,0.00,WeatherCatV2.31B93,2017-02-25 08:39:00,
2017-02-25 03:44:00,61.2,53.6,29.64,SSW,197,0.0,1.0,76,0.00,,,0.00,WeatherCatV2.31B93,2017-02-25 08:44:00,
2017-02-25 03:50:00,61.1,53.5,29.64,SSW,197,0.0,0.0,76,0.00,,,0.00,WeatherCatV2.31B93,2017-02-25 08:50:00,
2017-02-25 03:55:00,61.0,53.4,29.63,SSW,197,0.0,0.0,76,0.00,,,0.00,WeatherCatV2.31B93,2017-02-25 08:55:00,
2017-02-25 04:00:00,60.8,53.2,29.63,SSW,197,0.0,0.0,76,0.00,,,0.00,WeatherCatV2.31B93,2017-02-25 09:00:00,
2017-02-25 04:05:00,60.6,53.0,29.62,SSW,197,0.0,0.0,76,0.00,,,0.00,WeatherCatV2.31B93,2017-02-25 09:05:00,
2017-02-25 04:10:00,60.4,53.2,29.62,SSW,197,0.0,0.0,77,0.00,,,0.00,WeatherCatV2.31B93,2017-02-25 09:10:00,
2017-02-25 04:15:00,60.3,53.1,29.62,SSW,197,0.0,0.0,77,0.00,,,0.00,WeatherCatV2.31B93,2017-02-25 09:15:00,
2017-02-25 04:20:00,60.1,52.9,29.62,SSW,197,0.0,0.0,77,0.00,,,0.00,WeatherCatV2.31B93,2017-02-25 09:20:00,
2017-02-25 04:25:00,59.9,52.7,29.62,SSW,197,0.0,0.0,77,0.00,,,0.00,WeatherCatV2.31B93,2017-02-25 09:25:00,
2017-02-25 04:30:00,59.4,52.2,29.62,SSW,197,0.0,0.0,77,0.00,,,0.00,WeatherCatV2.31B93,2017-02-25 09:30:00,
2017-02-25 04:35:00,59.2,52.0,29.61,SSW,197,0.0,2.0,77,0.00,,,0.00,WeatherCatV2.31B93,2017-02-25 09:35:00,
2017-02-25 04:40:00,59.1,52.2,29.61,SSW,197,0.0,0.0,78,0.00,,,0.00,WeatherCatV2.31B93,2017-02-25 09:40:00,
2017-02-25 04:45:00,58.6,51.4,29.61,SSW,198,2.0,2.0,77,0.00,,,0.00,WeatherCatV2.31B93,2017-02-25 09:45:00,
2017-02-25 04:50:00,58.3,51.5,29.62,SSW,198,2.0,2.0,78,0.00,,,0.00,WeatherCatV2.31B93,2017-02-25 09:50:00,
2017-02-25 04:55:00,58.1,50.9,29.62,SSW,198,1.0,2.0,77,0.00,,,0.00,WeatherCatV2.31B93,2017-02-25 09:55:00,
2017-02-25 05:00:00,58.6,51.4,29.63,SSW,200,0.0,0.0,77,0.00,,,0.00,WeatherCatV2.31B93,2017-02-25 10:00:00,
2017-02-25 05:05:00,58.8,51.6,29.62,SSW,200,0.0,1.0,77,0.00,,,0.00,WeatherCatV2.31B93,2017-02-25 10:05:00,
2017-02-25 05:10:00,58.8,51.6,29.62,SSW,200,0.0,0.0,77,0.00,,,0.00,WeatherCatV2.31B93,2017-02-25 10:10:00,
2017-02-25 05:15:00,59.0,51.8,29.62,SSW,200,0.0,0.0,77,0.00,,,0.00,WeatherCatV2.31B93,2017-02-25 10:15:00,
2017-02-25 05:20:00,59.3,52.1,29.62,SSW,200,0.0,2.0,77,0.00,,,0.00,WeatherCatV2.31B93,2017-02-25 10:20:00,
2017-02-25 05:25:00,59.4,52.2,29.62,SSW,199,1.0,3.0,77,0.00,,,0.00,WeatherCatV2.31B93,2017-02-25 10:25:00,
2017-02-25 05:30:00,59.5,52.3,29.62,SSW,198,2.0,3.0,77,0.00,,,0.00,WeatherCatV2.31B93,2017-02-25 10:30:00,
2017-02-25 05:35:00,59.4,52.2,29.62,SSE,159,5.0,5.0,77,0.00,,,0.00,WeatherCatV2.31B93,2017-02-25 10:35:00,
2017-02-25 05:40:00,59.5,52.3,29.62,SSE,161,5.0,9.0,77,0.00,,,0.00,WeatherCatV2.31B93,2017-02-25 10:40:00,
2017-02-25 05:45:00,59.6,52.4,29.61,SSE,166,1.0,4.0,77,0.00,,,0.00,WeatherCatV2.31B93,2017-02-25 10:45:00,
2017-02-25 05:50:00,59.7,52.5,29.61,SE,146,5.0,6.0,77,0.00,,,0.00,WeatherCatV2.31B93,2017-02-25 10:50:00,
2017-02-25 05:55:00,59.6,52.4,29.61,SE,146,4.0,4.0,77,0.00,,,0.00,WeatherCatV2.31B93,2017-02-25 10:55:00,
2017-02-25 06:00:00,59.5,52.3,29.61,SE,143,2.0,4.0,77,0.00,,,0.00,WeatherCatV2.31B93,2017-02-25 11:00:00,
2017-02-25 06:05:00,59.5,52.3,29.62,SE,134,0.0,1.0,77,0.00,,,0.00,WeatherCatV2.31B93,2017-02-25 11:05:00,
2017-02-25 06:10:00,59.6,52.4,29.61,SSW,200,8.0,10.0,77,0.00,,,0.00,WeatherCatV2.31B93,2017-02-25 11:10:00,
2017-02-25 06:15:00,59.7,52.5,29.61,SSE,149,2.0,4.0,77,0.00,,,0.00,WeatherCatV2.31B93,2017-02-25 11:15:00,
2017-02-25 06:20:00,59.9,52.3,29.63,SSW,192,3.0,8.0,76,0.87,,,0.03,WeatherCatV2.31B93,2017-02-25 11:20:00,
2017-02-25 06:26:00,59.7,51.8,29.62,South,186,2.0,3.0,75,0.40,,,0.10,WeatherCatV2.31B93,2017-02-25 11:26:00,
2017-02-25 06:31:00,59.4,50.7,29.63,SSW,207,4.0,4.0,73,0.09,,,0.10,WeatherCatV2.31B93,2017-02-25 11:31:00,
2017-02-25 06:36:00,59.3,50.3,29.63,SSW,208,1.0,3.0,72,0.05,,,0.10,WeatherCatV2.31B93,2017-02-25 11:36:00,
2017-02-25 06:41:00,59.1,50.1,29.63,SSE,151,4.0,6.0,72,0.04,,,0.10,WeatherCatV2.31B93,2017-02-25 11:41:00,
2017-02-25 06:46:00,58.9,49.1,29.63,South,181,0.0,1.0,70,0.00,,,0.10,WeatherCatV2.31B93,2017-02-25 11:46:00,
2017-02-25 06:51:00,58.7,48.9,29.63,South,181,0.0,0.0,70,0.00,,,0.10,WeatherCatV2.31B93,2017-02-25 11:51:00,
2017-02-25 06:56:00,58.6,48.8,29.63,South,188,2.0,3.0,70,0.00,,,0.10,WeatherCatV2.31B93,2017-02-25 11:56:00,
2017-02-25 07:01:00,58.5,48.4,29.63,South,188,3.0,4.0,69,0.00,,,0.10,WeatherCatV2.31B93,2017-02-25 12:01:00,
2017-02-25 07:06:00,58.3,48.2,29.63,South,188,1.0,3.0,69,0.00,,,0.10,WeatherCatV2.31B93,2017-02-25 12:06:00,
2017-02-25 07:12:00,58.1,48.0,29.63,South,188,1.0,3.0,69,0.00,,,0.10,WeatherCatV2.31B93,2017-02-25 12:12:00,
2017-02-25 07:17:00,58.0,47.9,29.63,South,188,1.0,2.0,69,0.00,,,0.10,WeatherCatV2.31B93,2017-02-25 12:17:00,
2017-02-25 07:22:00,58.0,47.9,29.64,SSW,212,3.0,6.0,69,0.00,,,0.10,WeatherCatV2.31B93,2017-02-25 12:22:00,
2017-02-25 07:27:00,57.9,47.8,29.64,SSW,209,0.0,2.0,69,0.00,,,0.10,WeatherCatV2.31B93,2017-02-25 12:27:00,
2017-02-25 07:32:00,57.8,47.7,29.63,SSW,207,0.0,3.0,69,0.00,,,0.10,WeatherCatV2.31B93,2017-02-25 12:32:00,
2017-02-25 07:37:00,57.7,47.6,29.64,SSW,205,5.0,7.0,69,0.00,,,0.10,WeatherCatV2.31B93,2017-02-25 12:37:00,
2017-02-25 07:42:00,57.6,48.6,29.65,SSW,206,2.0,5.0,72,0.00,,,0.10,WeatherCatV2.31B93,2017-02-25 12:42:00,
2017-02-25 07:47:00,57.4,49.2,29.65,South,171,5.0,7.0,74,0.00,,,0.10,WeatherCatV2.31B93,2017-02-25 12:47:00,
2017-02-25 07:52:00,57.2,49.3,29.64,South,170,0.0,0.0,75,0.00,,,0.10,WeatherCatV2.31B93,2017-02-25 12:52:00,
2017-02-25 07:57:00,57.0,49.5,29.65,SW,232,5.0,7.0,76,0.00,,,0.10,WeatherCatV2.31B93,2017-02-25 12:57:00,
2017-02-25 08:02:00,57.1,49.6,29.65,SW,229,4.0,4.0,76,0.00,,,0.10,WeatherCatV2.31B93,2017-02-25 13:02:00,
2017-02-25 08:07:00,57.0,49.9,29.65,SSW,213,2.0,7.0,77,0.00,,,0.10,WeatherCatV2.31B93,2017-02-25 13:07:00,
2017-02-25 08:12:00,57.0,49.5,29.66,SSW,213,3.0,4.0,76,0.00,,,0.10,WeatherCatV2.31B93,2017-02-25 13:12:00,
2017-02-25 08:17:00,56.9,49.4,29.67,SSW,193,4.0,5.0,76,0.00,,,0.10,WeatherCatV2.31B93,2017-02-25 13:17:00,
2017-02-25 08:22:00,57.0,49.9,29.67,SW,228,4.0,5.0,77,0.00,,,0.10,WeatherCatV2.31B93,2017-02-25 13:22:00,
2017-02-25 08:27:00,57.0,49.9,29.67,SSW,211,4.0,7.0,77,0.00,,,0.10,WeatherCatV2.31B93,2017-02-25 13:27:00,
2017-02-25 08:32:00,57.1,50.3,29.67,SSW,206,4.0,5.0,78,0.00,,,0.10,WeatherCatV2.31B93,2017-02-25 13:32:00,
2017-02-25 08:37:00,57.4,50.6,29.67,South,170,4.0,8.0,78,0.00,,,0.10,WeatherCatV2.31B93,2017-02-25 13:37:00,
2017-02-25 08:42:00,57.5,50.7,29.67,West,276,19.0,21.0,78,0.00,,,0.10,WeatherCatV2.31B93,2017-02-25 13:42:00,
2017-02-25 08:47:00,57.6,50.1,29.68,SW,221,5.0,14.0,76,0.00,,,0.10,WeatherCatV2.31B93,2017-02-25 13:47:00,
2017-02-25 08:52:00,57.7,49.5,29.68,WSW,242,6.0,17.0,74,0.00,,,0.10,WeatherCatV2.31B93,2017-02-25 13:52:00,
2017-02-25 08:57:00,57.6,49.0,29.68,WNW,296,5.0,13.0,73,0.00,,,0.10,WeatherCatV2.31B93,2017-02-25 13:57:00,
2017-02-25 09:02:00,57.4,48.8,29.69,SW,221,2.0,9.0,73,0.00,,,0.10,WeatherCatV2.31B93,2017-02-25 14:02:00,
2017-02-25 09:08:00,57.3,47.2,29.69,SSW,196,6.0,24.0,69,0.00,,,0.10,WeatherCatV2.31B93,2017-02-25 14:08:00,
2017-02-25 09:13:00,57.3,45.2,29.69,WNW,293,7.0,13.0,64,0.00,,,0.10,WeatherCatV2.31B93,2017-02-25 14:13:00,
2017-02-25 09:18:00,57.4,44.5,29.68,SW,219,11.0,14.0,62,0.00,,,0.10,WeatherCatV2.31B93,2017-02-25 14:18:00,
2017-02-25 09:23:00,57.6,45.1,29.69,SW,230,3.0,7.0,63,0.00,,,0.10,WeatherCatV2.31B93,2017-02-25 14:23:00,
2017-02-25 09:28:00,57.8,42.2,29.69,WSW,239,8.0,13.0,56,0.00,,,0.10,WeatherCatV2.31B93,2017-02-25 14:28:00,
2017-02-25 09:33:00,58.0,41.5,29.69,SW,232,5.0,11.0,54,0.00,,,0.10,WeatherCatV2.31B93,2017-02-25 14:33:00,
2017-02-25 09:38:00,58.3,42.2,29.69,WNW,296,8.0,11.0,55,0.00,,,0.10,WeatherCatV2.31B93,2017-02-25 14:38:00,
2017-02-25 09:43:00,58.5,41.9,29.69,West,279,7.0,14.0,54,0.00,,,0.10,WeatherCatV2.31B93,2017-02-25 14:43:00,
2017-02-25 09:48:00,58.5,40.4,29.69,SSW,202,5.0,14.0,51,0.00,,,0.10,WeatherCatV2.31B93,2017-02-25 14:48:00,
2017-02-25 09:53:00,58.5,40.4,29.69,West,260,5.0,11.0,51,0.00,,,0.10,WeatherCatV2.31B93,2017-02-25 14:53:00,
2017-02-25 09:58:00,58.6,37.3,29.69,SSE,168,10.0,14.0,45,0.00,,,0.10,WeatherCatV2.31B93,2017-02-25 14:58:00,
2017-02-25 10:03:00,58.7,36.3,29.69,South,180,9.0,9.0,43,0.00,,,0.10,WeatherCatV2.31B93,2017-02-25 15:03:00,
2017-02-25 10:08:00,58.8,35.2,29.69,West,276,7.0,11.0,41,0.00,,,0.10,WeatherCatV2.31B93,2017-02-25 15:08:00,